sim
Sign-in with your pilot id or email,
or register
Callsign
Passwort

Schedule Details

Flight Number: RYR3701 (2)
Departure: East Midlands Airport (EGNX) at 13:05
Arrival: Fuerteventura Airport (GCFV) at 17:20
Route: Ryanair Passenger Schedule. Enter filed route here before submitting Pirep.

Weather Information
Getting current METAR information for EGNX 222320Z 23006KT CAVOK 18/15 Q1021
Getting current METAR information for GCFV 222330Z AUTO 36016KT 9999 NCD 21/17 Q1018

Schedule Frequency

Route Map